Terminal Aerodrome Forecast
Issued by NWS Blacksburg, VA

Current Version | Previous Version | Graphics & Text | Print | Product List | Glossary On
Versions: 1 2 3 4 5 6 7 8 9 10 11 12 13 14 15 16 17 18 19 20 21 22 23 24 25 26 27 28 29 30 31 32 33 34 35
000
FTUS41 KRNK 250700 AAA
TAFBLF
TAF AMD
KBLF 250700Z 2507/2606 VRB03KT P6SM BKN015 BKN025
     FM250900 14004KT 5SM BR SCT005 SCT035
     FM251500 12005KT P6SM SCT025
     FM251800 09006KT P6SM SCT045=

USA.gov is the U.S. government's official web portal to all federal, state and local government web resources and services.